Regional Weather Roundup
Issued by NWS

Home | Current Version | Previous Version | Graphics & Text | Print | Product List | Glossary On
Versions: 1 2 3 4 5 6 7 8 9 10 11 12 13 14 15 16 17 18 19 20 21 22 23 24 25 26 27
000
ASUS45 KBOU 281607
RWRCO

WEATHER ROUNDUP FOR COLORADO
NATIONAL WEATHER SERVICE DENVER/BOULDER CO
900 AM MST TUE FEB 28 2017

NOTE: "FAIR" INDICATES FEW OR NO CLOUDS BELOW 12000 FEET WITH NO
SIGNIFICANT WEATHER AND/OR OBSTRUCTIONS TO VISIBILITY.

COZ001>005-013-030-031-281700-
...NORTHWEST COLORADO...

CITY           SKY/WX    TMP DP  RH WIND       PRES   REMARKS
CRAIG          CLOUDY    17  12  80 CALM      29.80R
HAYDEN         FAIR      18  10  73 CALM      29.77S
MEEKER         LGT SNOW  22  17  81 S5        29.78R WCI  16
MOUNT WERNER   NOT AVBL
STEAMBOAT SPGS CLOUDY    16  12  86 CALM      29.75R
WALDEN         NOT AVBL
$$

COZ006>008-011-281700-
...WEST CENTRAL VALLEYS...

CITY           SKY/WX    TMP DP  RH WIND       PRES   REMARKS
GRAND JUNCTION CLOUDY    29  28  96 CALM      29.80R
MONTROSE       SNOW      28  27  96 N7        29.78R VSB 1/2 WCI  21
EAGLE          SNOW      23  19  86 W7        29.75R VSB 1/2 WCI  15
RIFLE          LGT SNOW  27  26  96 W6        29.79R FOG     WCI  20
DELTA          CLOUDY    32  28  85 W14       29.75R WCI  22
NUCLA          SNOW      32  30  93 NW15G22   29.80R VSB 1/2 WCI  22
$$

COZ017>023-064>068-281700-
...SOUTHWEST COLORADO...

CITY           SKY/WX    TMP DP  RH WIND       PRES   REMARKS
DURANGO        CLOUDY    30  26  85 SW12      29.75R WCI  20
CORTEZ         CLOUDY    31  31 100 W6        29.80R WCI  25
PAGOSA SPRINGS LGT SNOW  32  31  96 SW9       29.73R WCI  24
TELLURIDE      LGT SNOW  24  22  93 CALM      29.75R VSB 3/4
WOLF CREEK PAS CLOUDY    18  18 100 S25G39    29.70R WCI  -1
$$

COZ009-010-012-014-032>034-037-058>063-281700-
...CENTRAL COLORADO...

CITY           SKY/WX    TMP DP  RH WIND       PRES   REMARKS
ASPEN          LGT SNOW  22  19  89 N5        29.69R VSB 1   WCI  16
BUENA VISTA    CLOUDY    30  24  76 CALM      29.64S
COPPER MTN     LGT SNOW  19  12  73 MISG      29.61R VSB 3/4
BERTHOUD PASS  LGT SNOW   9  -2  61 W12       29.59S WCI  -6
COTTONWOOD PAS CLOUDY    28  19  69 W9        29.63S HAZE    WCI  20
GUNNISON       LGT SNOW  27  23  85 S6        29.70R FOG     WCI  20
KREMMLING      LGT SNOW  27  19  74 CALM      29.72S VSB 1
LEADVILLE      CLOUDY    19  15  84 S6        29.61S WCI  11
MONARCH PASS   CLOUDY    14  10  85 SW24G30   29.73S WCI  -5
SALIDA         CLOUDY    36  18  49 SW6       29.72S
SUNLIGHT       NOT AVBL
WILKERSON PASS CLOUDY    19  16  86 SW10G16   29.64S FOG     WCI   8
$$

COZ069>075-281700-
...SAN LUIS VALLEY/SANGRE DE CRISTO MOUNTAINS...

CITY           SKY/WX    TMP DP  RH WIND       PRES   REMARKS
ALAMOSA        CLOUDY    33  31  92 SW22G31   29.66R WCI  21
LA VETA PASS   CLOUDY    27  23  86 S38G62    29.64F FOG     WCI   9
SAGUACHE       MIX PCPN  30  27  86 NW10      29.68S WCI  21
$$

COZ035-036-038>040-281700-
...NORTHERN COLORADO FRONT RANGE...

CITY           SKY/WX    TMP DP  RH WIND       PRES   REMARKS
DENVER INTL AP CLOUDY    30  16  56 S5        29.69S WCI  25
DMNS CITY PARK   N/A     33  15  49 E10       29.69F WCI  24
AURORA         CLOUDY    30  15  53 E8        29.69F WCI  22
FRONT RANGE AP CLOUDY    32  19  59 CALM      29.70S
ERIE MUNI ARPT CLOUDY    34  17  50 SE9       29.69F WCI  27
BOULDER MUN AP PTSUNNY   34  21  60 SE3       29.68F
CENTENNIAL     CLOUDY    29  16  58 E7        29.68F WCI  22
BROOMFIELD     CLOUDY    32  18  55 S7        29.68F WCI  26
FORT COLLINS   FAIR      32  18  56 NE6       29.70S WCI  26
LONGMONT       NOT AVBL
$$

COZ041-046-047-076>085-087-088-281700-
...PIKES PEAK/PALMER DIVIDE AND SOUTHERN FOOTHILLS...

CITY           SKY/WX    TMP DP  RH WIND       PRES   REMARKS
COLO. SPRINGS  PTSUNNY   33  14  45 CALM      29.70R
A. F. ACADEMY  FLURRIES  28  19  69 S7        29.68R WCI  21
SCHRIEVER AFB  PTSUNNY   31  11  43 N7        29.70R WCI  24
ELLICOTT       CLOUDY   N/A N/A N/A E14       29.68R
FALCON         CLOUDY    29   9  42 E6        29.70R WCI  23
FORT CARSON    PTSUNNY   32  19  59 CALM      29.69S
LIMON          CLOUDY   N/A N/A N/A N9        29.70S
MONUMENT HILL  CLOUDY    27  16  63 SE9       29.67S WCI  17
TRINIDAD       FAIR      37  20  50 NE21      29.66R
$$

COZ042>045-048>051-090-091-281700-
...NORTHEAST COLORADO...

CITY           SKY/WX    TMP DP  RH WIND       PRES   REMARKS
GREELEY ARPT   FAIR      31  21  66 CALM      29.73R
AKRON          CLOUDY    30  14  51 N15       29.70F WCI  19
BURLINGTON     CLOUDY    36  13  38 N18       29.72R
WRAY           NOT AVBL
STERLING       FAIR      32  23  69 NE3       29.73R
HOLYOKE        FAIR      37  18  44 N17       29.72F
FORT MORGAN    CLOUDY    32  18  55 CALM      29.73R
$$

COZ086-089-092>099-281700-
...SOUTHEAST COLORADO...

CITY           SKY/WX    TMP DP  RH WIND       PRES   REMARKS
PUEBLO         CLOUDY    36  14  40 CALM      29.72R
LA JUNTA       FAIR      39  18  42 E7        29.73S
LAMAR          FAIR      41  18  39 E8        29.71S
SPRINGFIELD      N/A     39  23  52 E12       29.68F
$$




USA.gov is the U.S. government's official web portal to all federal, state and local government web resources and services.